Daniel Oduber Quiros International Airport

Jump to: basic info | weather | frequencies | runways | comments

Related pages: nearby airports | nearby navaids | notams | map

Basic information (top)

Codes: LIR MRLB
Location: lon 10.593300, lat -85.544403, elev 270 ft / 82 m msl
Status: medium_airport
Scheduled airline service: yes
Links: Wikipedia Mobile

Weather (top)

Current conditions (rec'd 2014/10/25 14:00Z):

MRLB 251400Z 08002KT 9999 FEW030 SCT120 26/23 A2990

Airport forecast (rec'd 2014/10/25 06:14Z):

TAF MRLB 250500Z 2506/2606 15004KT 9999 FEW030 SCT120 TX31/2518Z TN23/2511Z 
      TEMPO 2509/2513 00000KT 0500 FG VV/// 
      TEMPO 2520/2523 27008KT 5000 SHRA SCT025TCU 
     FM260000 VRB02KT 9999 FEW030 BKN130

Frequencies (top)

Verify before use: may be inaccurate or out of date.

APP: 119.8 MHz (LIBERIA APP)
GND: 121.7 MHz (GND)
RDO: 126.8 MHz (COCO RDO)
TWR: 118.8 MHz (LIBERIA TWR)

Runways (top)

07/25: 9,022 x 148 ft (2,750 x 45 m) — paved — lighted

Latest comments (top)

Great Facility but: Make sure you either speak fluent ... [read]

Terminal building: Nice new facility opened in 2011 [read]

More... (top)

See also NOTAMs and nearby airports and navaids, or visit the Daniel Oduber Quiros International Airport page at the main OurAirports website..